Showing default

YAOGAN-32 A, 43642

Orbit data source: Space-Track

YAOGAN-32 A, 43642 is a payload satellite in SSO that was launched on Tue, 09 Oct 2018 UTC via a CHANG ZHENG 2C/YZ-1S launch vehicle from the Jiuquan Satellite Launch Center, China (JSC). Payload-class satellites include a variety of spacecraft equipped with specific instruments for various scientific and technological missions. These include communications satellites like Starlink; space stations such as the ISS; scientific satellites like the Hubble; Earth observation satellites from companies like Planet Labs, Umbra, and HawkEye 360; GPS; miniature CubeSats for education and research; and military/defense satellites.

Loading next visibility...
Identifier
43642, 2018-077A
Orbit
SSO
Last TLE update
3 hours ago
Origin
Manufacturer
SECM?
Mission
Operational Defense Sigint
Bus & Motor
Unknown
Mass
~500 kg wet, ~500 kg dry
Launch date (UTC)
2018-10-09 (7 years ago)
Launch vehicle
CHANG ZHENG 2C/YZ-1S
Launch site
Jiuquan Satellite Launch Center, China (JSC)
Object type
Payload
Rocket body
Debris
Shape & HBR
Box + 2 Pan, 1 m
Radar Cross Section
0.446 m², Large (>1 m²)

Expand to show TLE details & history

TLE from 3 hours ago
0 YAOGAN-32 A
1 43642U 18077A   25141.87938708  .00000654  00000-0  13768-3 0  9998
2 43642  97.9425 176.6187 0001438  87.6201 272.5166 14.62531593352630
Epoch: 2025-05-21T21:06Z
TLE epoch observation values (Epoch: 2025-05-21T21:06:19.043Z)
Latitude
-0.00002°
Longitude
-19.71761°
Altitude
687.963 km
Speed
7.512 km/s
True Right ascension
11h 46m 28s
True Declination
0° 00' 00"
Sunlit
Object was in full shadow at epoch
Visualization orbit readout
Latitude
23.02351°
Longitude
-22.96246°
Altitude
687.428 km
Speed
7.515 km/s
Apparent Right ascension
14h 43m 56s
Apparent Declination
-21° 04' 19"
Sunlit
Object is in daylight
Visualization observer readout
Local Sidereal Time
09:28:47
Azimuth
113.193° SE
Elevation
-5.253°
Doppler factor
1
Orbital elements
Apogee altitude
683.093 km
Perigee altitude
681.062 km
Semi-major axis
7,060.215 km
Eccentricity
0.00014
Inclination
97.9425°
RAAN
176.6187°
Arg. of periapsis
87.6201°
True anomaly
Unknown
Mean anomaly
272.5166°
Eccentric anomaly
Unknown
Mean motion
3.65861 °/min
Orbital period
98.4 mins
BSTAR
0.00013768
Loading maneuver chart data...
Loading SW <> Apogee altitude chart data...
Loading historical data...
Loading historical data...
Loading historical data...
Loading historical data...
Loading historical data...
Loading historical data...
Loading historical data...
Other satellites on launch #77 in the year 2018 (2018-10-09 UTC)

YAOGAN-32 A Visibility forecast

Observer location: undefined°, undefined°

Span
Click to sort rows by Start time (UTC) header in descending order
Start Az.
Max El. time (UTC)
Max El. Az.
Max El.
End time (UTC)
End Az.
8 mins2025-05-22 02:08:40.839Z159.42° S2025-05-22 02:12:40.839Z112.238° ESE43.366°2025-05-22 02:16:40.839Z352.361° N
4 mins2025-05-22 14:08:40.839Z69.015° E2025-05-22 14:09:40.839Z84.981° E17.93°2025-05-22 14:12:40.839Z130.935° SE
7 mins2025-05-22 15:44:40.839Z349.615° N2025-05-22 15:47:40.839Z289.607° WNW32.847°2025-05-22 15:51:40.839Z221.52° SW
|